This is the latest recevied weather packets stored in our database for station/object W4MSI. If no packets are shown the sender has not sent any weather packets the latest 10 day(s).
| Time | Temp. | Humidity | Pressure | Rain* | Wind** | Luminosity | Snow |
|---|---|---|---|---|---|---|---|
| 1777808084 | 5° C | 99% | 1020.3 hPa | 0 mm | - | 35 W/m² | - |
| 1777807781 | 4.44° C | 99% | 1020.5 hPa | 0 mm | - | 30 W/m² | - |
| 1777807479 | 4.44° C | 99% | 1020.3 hPa | 0 mm | - | 24 W/m² | - |
| 1777807174 | 3.89° C | 99% | 1020.3 hPa | 0 mm | - | 19 W/m² | - |
| 1777806872 | 3.89° C | 99% | 1020.3 hPa | 0 mm | - | 16 W/m² | - |
| 1777806568 | 3.89° C | 99% | 1020.1 hPa | 0 mm | - | 12 W/m² | - |
| 1777806264 | 3.89° C | 99% | 1020 hPa | 0 mm | - | 7 W/m² | - |
| 1777805961 | 3.89° C | 99% | 1020 hPa | 0 mm | - | 6 W/m² | - |
| 1777805658 | 3.33° C | 99% | 1019.9 hPa | 0 mm | - | 3 W/m² | - |
| 1777805356 | 3.33° C | 99% | 1020 hPa | 0 mm | - | 1 W/m² | - |
| 1777805054 | 3.89° C | 99% | 1019.8 hPa | 0 mm | - | 1 W/m² | - |
| 1777804751 | 3.89° C | 99% | 1020 hPa | 0 mm | - | 0 W/m² | - |
| 1777804449 | 3.89° C | 99% | 1019.9 hPa | 0 mm | - | 0 W/m² | - |
| 1777804146 | 3.89° C | 99% | 1019.7 hPa | 0 mm | - | 0 W/m² | - |
| 1777803843 | 3.89° C | 99% | 1019.7 hPa | 0 mm | - | 0 W/m² | - |
| 1777803538 | 3.89° C | 99% | 1019.8 hPa | 0 mm | - | 0 W/m² | - |
| 1777803236 | 3.89° C | 99% | 1019.7 hPa | 0 mm | - | 0 W/m² | - |
| 1777802932 | 3.33° C | 99% | 1019.8 hPa | 0 mm | - | 0 W/m² | - |
| 1777802630 | 3.33° C | 99% | 1019.7 hPa | 0 mm | - | 0 W/m² | - |
| 1777802328 | 3.89° C | 99% | 1019.6 hPa | 0 mm | - | 0 W/m² | - |
| 1777802026 | 3.89° C | 99% | 1019.4 hPa | 0 mm | - | 0 W/m² | - |
| 1777801723 | 3.89° C | 99% | 1019.6 hPa | 0 mm | - | 0 W/m² | - |
| 1777801421 | 3.89° C | 99% | 1019.6 hPa | 0 mm | - | 0 W/m² | - |
| 1777801117 | 3.89° C | 99% | 1019.7 hPa | 0 mm | - | 0 W/m² | - |
| 1777800815 | 3.89° C | 99% | 1019.5 hPa | 0 mm | - | 0 W/m² | - |
* Rain latest hour (hover to see other rain measurements)
** Current wind speed in m/s (hover to see current wind gust speed)